National Weather Service Hourly Weather Roundup
NOAA NWS Hourly Roundups by Site
NOAA NWS Hourly Roundups by Site
Regional Weather Roundup for Sacramento, CA

To Select Another Site Choose from List

Select Site:  

000
ASUS46 KSTO 240315
RWRCA

NORTHERN AND CENTRAL CA REGIONAL WEATHER ROUNDUP
NATIONAL WEATHER SERVICE SACRAMENTO CA
700 PM PST THU JAN 23 2020

NOTE: FAIR INDICATES FEW OR NO CLOUDS BELOW 12,000 FEET WITH NO
SIGNIFICANT WEATHER AND/OR OBSTRUCTIONS TO VISIBILITY.

CAZ001-003-240400-
NORTHWEST AREA

CITY           SKY/WX    TMP DP  RH WIND       PRES   REMARKS
CRESCENT CITY  CLOUDY    50  48  93 S17G25    30.03F
UKIAH          CLOUDY    52  49  89 CALM      30.13S
$$

CAZ006-505>513-240400-
BAY AREA

CITY           SKY/WX    TMP DP  RH WIND       PRES   REMARKS
SANTA ROSA     CLOUDY    52  48  86 CALM      30.14R
SAN RAFAEL     N/A       MM  MM  MM MISG
NAPA           CLOUDY    53  49  86 E6        30.13S
CONCORD        CLOUDY    53  49  86 NW5       30.13R
OAKLAND CITY   N/A       57  MM  MM MISG
OAKLAND        CLOUDY    57  50  77 NW5       30.13R
SAN FRAN CITY  N/A       57  MM  70 MISG
SAN FRAN ARPT  CLOUDY    55  49  80 N3        30.12S
LIVERMORE      CLOUDY    52  48  86 NE3       30.12F
HAYWARD        CLOUDY    55  49  80 CALM      30.11S
SAN JOSE ARPT  MOCLDY    57  48  72 CALM      30.12F
$$
CAZ034-037-514>518-240400-
CENTRAL COAST

CITY           SKY/WX    TMP DP  RH WIND       PRES   REMARKS
WATSONVILLE    MOCLDY    56  52  86 CALM      30.11S
SALINAS        MOCLDY    56  50  80 W3        30.12S
MONTEREY       MOCLDY    55  50  83 SE6       30.12F
SAN LUIS OBISP CLEAR     54  49  83 VRB3      30.07S
SANTA MARIA    CLEAR     55  50  83 CALM      30.08R
$$
CAZ015-016-240400-
NORTHERN SACRAMENTO VALLEY

CITY           SKY/WX    TMP DP  RH WIND       PRES   REMARKS
REDDING        LGT RAIN  50  47  89 E3        30.11F
RED BLUFF      LGT RAIN  50  48  93 E6        30.14F
OROVILLE       CLOUDY    52  48  86 CALM      30.14F
$$
CAZ016>018-240400-
SOUTHERN SACRAMENTO VALLEY

CITY           SKY/WX    TMP DP  RH WIND       PRES   REMARKS
AUBURN         CLOUDY    52  50  93 CALM      30.13S
BEALE AFB      CLOUDY    52  49  89 CALM      30.12S
LINCOLN        FAIR      50  50 100 CALM      30.13S
MARYSVILLE     CLOUDY    51  48  89 CALM      30.14S
SAC INTL ARPT  CLOUDY    51  49  92 CALM      30.13S
MATHER AIRPORT PTCLDY    54  50  87 CALM      30.12
DOWNTOWN SAC   N/A       55  MM  MM MISG
SAC EXEC ARPT  CLOUDY    53  49  86 W5        30.14R
VACAVILLE      CLOUDY    52  47  83 CALM      30.15R
TRAVIS AFB     CLOUDY    51  47  86 CALM      30.14R
$$
CAZ019>021-240400-
SAN JOAQUIN VALLEY

CITY           SKY/WX    TMP DP  RH WIND       PRES   REMARKS
STOCKTON       CLOUDY    55  51  86 CALM      30.12F
MODESTO        CLOUDY    56  49  77 NE3       30.12F
MERCED         CLOUDY    55  49  80 W3        30.14R
LEMOORE        MOCLDY    51  47  86 SE7       30.14S
FRESNO         PTCLDY    58  49  72 CALM      30.13F
HANFORD        CLEAR     52  49  89 S3        30.16R FOG
PORTERVILLE    CLOUDY    52  50  93 CALM      30.17R FOG
BAKERSFIELD    CLOUDY    56  48  74 E5        30.16S
$$
CAZ011-012-071-240400-
NORTHERN MOUNTAINS

CITY           SKY/WX    TMP DP  RH WIND       PRES   REMARKS
YREKA          LGT RAIN  45  42  89 NW5       30.07S
MOUNT SHASTA   RAIN      40  39  97 SE3       30.09S FOG
ALTURAS        CLOUDY    40  38  93 N3        30.07F
$$
CAZ011-012-071-240400-
SIERRA NEVADA MTNS

CITY           SKY/WX    TMP DP  RH WIND       PRES   REMARKS
BLUE CANYON    CLOUDY    46  34  62 SE5       30.18S
TRUCKEE        CLOUDY    41  32  70 SE9G16    30.18F
TAHOE VLY ARPT LGT RAIN  36  34  92 CALM      30.20S
MAMMOTH LAKES  MOCLDY    36  23  60 SW3       30.23S
$$


 

View Past Reports for Sacramento, CA.

Products Courtesy of NOAA-NWS
NWS Information Parsing Script by Ken True at Saratoga Weather - Script by SE Lincoln Weather.

powered by Cumulus v1.9.3 (1059)
Ambient Weather VWS v14.00
Top Website Map Copyright © 2007 - 2020 Foresthillweather.com Never base important decisions on this or any weather information obtained from the Internet